Regional Weather Roundup
Issued by NWS

Home | Current Version | Previous Version | Text Only | Print | Product List | Glossary Off
Versions: 1 2 3 4 5 6 7 8 9 10 11 12 13 14 15 16 17 18 19 20 21 22 23 24 25 26 27 28 29 30 31 32 33 34 35 36 37 38 39 40 41 42 43 44 45 46 47 48 49 50

000
ASUS43 KLOT 261507
RWRIL

ILLINOIS REGIONAL WEATHER ROUNDUP
NATIONAL WEATHER SERVICE CHICAGO/ROMEOVILLE IL
1000 AM CDT WED APR 26 2017

NOTE: "FAIR" INDICATES FEW OR NO CLOUDS BELOW 12,000 FEET WITH NO
SIGNIFICANT WEATHER AND/OR OBSTRUCTIONS TO VISIBILITY.

* THESE STATIONS ARE NOT UNDER NWS QUALITY CONTROL. THEY ALSO MAY NOT
  REPORT WEATHER SUCH AS PRECIPITATION OR FOG.

ILZ001-002-007-009-015-016-024-261600-
NORTHWEST ILLINOIS

CITY           SKY/WX    TMP DP  RH WIND       PRES   REMARKS
MOLINE         CLOUDY    59  55  87 W14       29.44R FOG
STERLING*      CLOUDY    60  59  96 VRB7      29.44S
SAVANNA*       LGT RAIN  61  59  93 SW7G16    29.43R
$$

ILZ003-004-008-010-011-017-018-261600-
NORTH CENTRAL ILLINOIS

CITY           SKY/WX    TMP DP  RH WIND       PRES   REMARKS
ROCKFORD       LGT RAIN  60  58  92 S8        29.45R FOG
FREEPORT*      RAIN      58  57  96 S12       29.43R
ROCHELLE*      CLOUDY    59  58  96 S16       29.45R
DE KALB*       CLOUDY    61  58  91 SW16      29.45R
PERU*          CLOUDY    63  58  83 SW13      29.46R
$$

ILZ005-006-012>014-019>023-261600-
NORTHEAST ILLINOIS

CITY           SKY/WX    TMP DP  RH WIND       PRES   REMARKS
CHICAGO-OHARE  PTSUNNY   70  56  61 S20       29.40F
CHICAGO-MIDWAY MOSUNNY   72  57  59 S14       29.41F
AURORA         CLOUDY    68  58  70 S14G22    29.43R
LANSING*       MOSUNNY   71  61  69 S16G28    29.44R
JOLIET*        PTSUNNY   73  59  62 S17G23    29.42F
WAUKEGAN       CLOUDY    67  56  67 S12G22    29.40S
DUPAGE AIRPORT PTSUNNY   69  59  70 S14       29.41S
KANKAKEE*      SUNNY     75  57  54 S23       29.44F
WHEELING       CLOUDY    68  58  70 S12       29.42F
MORRIS*        CLOUDY    70  56  61 SW17G26   29.42R
ROMEOVILLE*    MOSUNNY   72  61  68 S17G30    29.42S
NORTHERLY ISL    N/A     70  54  56 S12         N/A
$$

LMZ740>746-261600-
SOUTHERN LAKE MICHIGAN

STATION/POSITION SKY/WX   TEMP    WIND        PRES    VSBY  WAVE
                          AIR SEA DIR/SP/G                  HT/PER
                          (F)     (DEG/KT/KT) (MB)    (MI)  (FT/S)
SOUTHERN BUOY              48 41  110/ 14/ 16  997.6          2/ 4
HARRISON CRIB              63     160/ 17/ 18   N/A
BURNHAM HARBOR             71     170/ 12/ 16   N/A
CALUMET HARBOR             70     170/ 12/ 16  996.3F
BURNS HARBOR               71     170/ 11/ 20  997.3F
MICHIGAN CITY              69     140/ 18/ 24   N/A
MICHIGAN CITY 6N           63 49                N/A           2/ 2
ST. JOSEPH                 61 49  180/ 14/ 17  997.6          2/ 3
$$

ILZ025>027-034>036-040-047-049-050-058-095>099-261600-
WEST-CENTRAL ILLINOIS

CITY           SKY/WX    TMP DP  RH WIND       PRES   REMARKS
QUINCY         CLOUDY    61  57  87 W9        29.51R
GALESBURG*     CLOUDY    59  56  89 W12       29.46R
MACOMB*        PTSUNNY   61  58  91 W12       29.51R
JACKSONVILLE*  CLOUDY    62  59  89 SW12      29.53R
PITTSFIELD*    CLOUDY    64  60  87 SW9       29.53R
$$

ILZ028>032-037-038-041>044-048-051>054-059>061-261600-
CENTRAL ILLINOIS

CITY           SKY/WX    TMP DP  RH WIND       PRES   REMARKS
PONTIAC        PTSUNNY   71  58  64 SW18G24   29.47R
BLOOMINGTON    CLOUDY    67  57  70 SW20      29.49R
DECATUR        CLOUDY    71  58  63 SW18G26   29.50R
PEORIA         CLOUDY    64  60  87 W9        29.47S
LACON*         CLOUDY    64  60  88 SW8       29.46R
LINCOLN*       PTSUNNY   68  59  71 W7        29.50R
SPRINGFIELD    PTSUNNY   67  58  72 SW13G21   29.52R
TAYLORVILLE    CLOUDY    72  56  57 SW16      29.52R
$$

ILZ033-039-045-046-055>057-062-063-261600-
EAST-CENTRAL ILLINOIS

CITY           SKY/WX    TMP DP  RH WIND       PRES   REMARKS
CHAMPAIGN      MOSUNNY   77  54  44 S25G35    29.48R
RANTOUL*       MOSUNNY   78  57  49 S20       29.47R
MATTOON        MOSUNNY   72  58  61 S16G25    29.51R
PARIS*         SUNNY     75  59  57 S21G29    29.52R
$$

ILZ079-100>102-261600-
SOUTHWEST ILLINOIS

CITY           SKY/WX    TMP DP  RH WIND       PRES   REMARKS
ALTON          PTSUNNY   70  55  60 S14       29.54R
CAHOKIA*       CLOUDY    72  53  51 W10G21    29.54R
SPARTA*        SUNNY     72  59  62 S8G22     29.55R
$$

ILZ064>066-069>071-074>076-080>082-084>086-088>090-092>094-261600-
SOUTH-CENTRAL ILLINOIS

CITY           SKY/WX    TMP DP  RH WIND       PRES   REMARKS
CARBONDALE     SUNNY     73  63  70 S18       29.54S
CAIRO*         SUNNY     72  62  70 S13G20    29.59S
EFFINGHAM*     MOSUNNY   73  60  63 SE12G20   29.53R
MARION         MOSUNNY   73  63  68 S12       29.57R
MT. VERNON     SUNNY     74  60  61 S13G24    29.53S
CENTRALIA*     SUNNY     75  61  60 S17G23    29.53R
SALEM*         SUNNY     75  57  53 S14G21    29.53R
METROPOLIS*    SUNNY     74  62  66 S9G16     29.61S
$$

ILZ067-068-072-073-078-083-087-091-261600-
SOUTHEAST ILLINOIS

CITY           SKY/WX    TMP DP  RH WIND       PRES   REMARKS
LAWRENCEVILLE  SUNNY     74  58  57 S21       29.56F
FLORA*         SUNNY     74  60  60 S18G25    29.54R
FAIRFIELD*     SUNNY     75  59  58 S10       29.54S
HARRISBURG*    SUNNY     73  62  67 S13G20    29.57F
ROBINSON*      SUNNY     74  58  59 S21       29.55S
CARMI*         SUNNY     73  61  65 S17       29.57S
$$

ABBREVIATIONS USED IN REMARKS
   TC - TEMPERATURE IN CELSIUS
  WCI - WIND CHILL INDEX
   HX - HEAT INDEX
  VSB - VISIBILITY
$$





USA.gov is the U.S. government's official web portal to all federal, state and local government web resources and services.